Philip, SD

3:39 AM MST on December 12, 2017 (GMT -0700)
Philip

Weather History for KPHP - May, 2013

Change the Weather History Date:

Friday, May 17, 2013

  Actual Average Record
Temperature  
Mean Temperature 64 °F 58 °F  
Max Temperature 83 °F 71 °F 95 °F (2012)
Min Temperature 45 °F 44 °F 30 °F (1969)
Degree Days  
Heating Degree Days 1 8  
Month to date heating degree days 197 183  
Since 1 July heating degree days 6947 7050  
Cooling Degree Days 0 1  
Month to date cooling degree days 11 12  
Year to date cooling degree days 11 15  
Growing Degree Days 12 (Base 50)    
Moisture  
Dew Point 52 °F    
Average Humidity 65    
Maximum Humidity 93    
Minimum Humidity 36    
Precipitation  
Precipitation 0.02 in 0.09 in 0.72 in (1991)
Month to date precipitation 0.05 1.67  
Year to date precipitation 3.23 5.56  
Sea Level Pressure  
Sea Level Pressure 29.76 in    
Wind  
Wind Speed 9 mph (East)    
Max Wind Speed 32 mph    
Max Gust Speed 40 mph    
Visibility 7 miles    
Events Fog , Rain    
T = Trace of Precipitation, MM = Missing Value Source: NWS Daily Summary

Daily Weather History Graph

Daily Weather History Graph

Search for Another Location

Airport or City:

Trip Planner

Search our weather history database for the weather conditions in past years. The results will help you decide how hot, cold, wet, or windy it might be!

Date:

Astronomy

May. 17, 2013 Rise Set
Actual Time 5:17 AM MDT 8:08 PM MDT
Civil Twilight 4:44 AM MDT 8:42 PM MDT
Nautical Twilight 4:01 AM MDT 9:25 PM MDT
Astronomical Twilight 3:11 AM MDT 10:15 PM MDT
Moon 11:58 AM MDT (5/17) 12:56 AM MDT (5/17)
Length of Visible Light 15h 58m
Length of Day
14h 50m
Waxing Crescent, 46% of the Moon is Illuminated
May 17
Waxing Crescent
May 17
First Quarter
May 24
Full
May 31
Last Quarter
Jun 8
New

Hourly Weather History & Observations

Time (MDT) Temp. Windchill Dew Point Humidity Pressure Visibility Wind Dir Wind Speed Gust Speed Precip Events Conditions
12:55 AM 55.0 °F - 51.1 °F 86% 29.75 in 10.0 mi ENE 9.2 mph - N/A   Clear
1:55 AM 53.1 °F - 50.0 °F 89% 29.77 in 10.0 mi NE 5.8 mph - N/A   Clear
2:55 AM 51.1 °F - 48.9 °F 92% 29.77 in 10.0 mi ENE 4.6 mph - N/A   Clear
3:55 AM 48.0 °F - 46.0 °F 93% 29.78 in 7.0 mi NNE 3.5 mph - N/A   Clear
4:36 AM 48.2 °F - 46.4 °F 93% 29.80 in 1.8 mi Calm Calm - N/A   Clear
4:47 AM 48.2 °F - 46.4 °F 93% 29.80 in 3.0 mi Calm Calm - N/A   Clear
4:55 AM 48.0 °F - 46.9 °F 96% 29.78 in 5.0 mi Calm Calm - N/A   Clear
5:08 AM 46.4 °F - 44.6 °F 93% 29.80 in 1.8 mi Calm Calm - N/A   Clear
5:13 AM 46.4 °F - 46.4 °F 100% 29.81 in 0.5 mi Calm Calm - N/A Fog Fog
5:28 AM 44.6 °F 42.2 °F 44.6 °F 100% 29.81 in 1.2 mi WNW 4.6 mph - N/A   Scattered Clouds
5:50 AM 46.9 °F - 45.0 °F 93% 29.80 in 3.0 mi Calm Calm - N/A   Scattered Clouds
5:59 AM 46.4 °F - 46.4 °F 100% 29.83 in 3.0 mi Calm Calm - N/A   Mostly Cloudy
6:53 AM 53.1 °F - 51.1 °F 93% 29.80 in 2.5 mi NNE 4.6 mph - N/A   Overcast
7:02 AM 51.8 °F - 51.8 °F 100% 29.83 in 1.0 mi Calm Calm - N/A   Overcast
7:11 AM 51.8 °F - 51.8 °F 100% 29.84 in 0.2 mi Calm Calm - N/A Fog Fog
7:48 AM 53.6 °F - 53.6 °F 100% 29.84 in 2.0 mi Calm Calm - N/A   Overcast
7:55 AM 54.0 °F - 52.0 °F 93% 29.81 in 2.5 mi North 3.5 mph - N/A   Overcast
8:13 AM 55.4 °F - 53.6 °F 94% 29.83 in 4.0 mi Calm Calm - N/A   Overcast
8:50 AM 59.0 °F - 53.6 °F 82% 29.83 in 9.0 mi Calm Calm - N/A   Scattered Clouds
8:55 AM 60.1 °F - 55.0 °F 83% 29.80 in 9.0 mi SE 4.6 mph - N/A   Partly Cloudy
9:55 AM 66.0 °F - 55.9 °F 70% 29.80 in 10.0 mi East 4.6 mph - N/A   Clear
10:55 AM 71.1 °F - 57.0 °F 61% 29.80 in 10.0 mi East 9.2 mph - N/A   Clear
11:55 AM 73.0 °F - 57.0 °F 57% 29.78 in 10.0 mi East 9.2 mph - N/A   Clear
12:55 PM 75.9 °F - 57.0 °F 52% 29.75 in 10.0 mi ESE 11.5 mph 17.3 mph N/A   Clear
1:55 PM 79.0 °F - 57.9 °F 48% 29.74 in 10.0 mi ESE 9.2 mph - N/A   Clear
2:55 PM 81.0 °F - 55.0 °F 41% 29.73 in 10.0 mi SE 10.4 mph 18.4 mph N/A   Clear
3:55 PM 81.0 °F - 55.0 °F 41% 29.69 in 10.0 mi East 10.4 mph - N/A   Clear
4:55 PM 81.0 °F - 51.1 °F 35% 29.66 in 10.0 mi East 18.4 mph - N/A   Clear
5:55 PM 78.1 °F - 52.0 °F 40% 29.64 in 10.0 mi East 16.1 mph - N/A   Clear
6:55 PM 71.1 °F - 60.1 °F 68% 29.67 in 9.0 mi SSE 26.5 mph 34.5 mph 0.00 in Rain Light Rain
7:02 PM 66.2 °F - 59.0 °F 78% 29.70 in 7.0 mi SE 18.4 mph 33.4 mph 0.01 in Rain Rain
7:17 PM 64.4 °F - 59.0 °F 83% 29.71 in 10.0 mi ENE 16.1 mph - 0.02 in Rain Light Rain
7:55 PM 64.0 °F - 57.0 °F 78% 29.63 in 10.0 mi East 11.5 mph - 0.02 in   Clear
8:55 PM 66.0 °F - 53.1 °F 63% 29.69 in 10.0 mi SSE 6.9 mph - N/A   Clear
9:55 PM 64.0 °F - 53.1 °F 67% 29.73 in 10.0 mi SE 8.1 mph - N/A   Clear
10:55 PM 60.1 °F - 54.0 °F 80% 29.67 in 10.0 mi East 8.1 mph - N/A   Clear
11:55 PM 60.1 °F - 54.0 °F 80% 29.66 in 10.0 mi ENE 8.1 mph - N/A   Clear